| time (UTC) | temp F | wind direction | speed knots | gust knots | rain 1hr in | rain 24hr in | rain mn in | humidity % | barometer mb |
| 20260506061513 | 60 | 154 | 0.0 | 2.6 | 0.00 | 0.00 | 0.00 | 83 | 1016.1 |
| 20260506044519 | 60 | 154 | 0.0 | 0.0 | 0.00 | 0.00 | 0.00 | 85 | 1015.6 |
| 20260506043022 | 60 | 154 | 0.0 | 0.0 | 0.00 | 0.00 | 0.00 | 85 | 1015.5 |
| 20260506041558 | 60 | 154 | 0.0 | 0.0 | 0.00 | 0.00 | 0.00 | 85 | 1015.2 |
| 20260506040105 | 60 | 154 | 0.0 | 0.0 | 0.00 | 0.00 | 0.00 | 83 | 1015.2 |
| 20260506034604 | 60 | 154 | 0.0 | 0.0 | 0.00 | 0.00 | 0.00 | 80 | 1014.9 |
| 20260506033051 | 61 | 154 | 0.0 | 0.0 | 0.00 | 0.00 | 0.00 | 76 | 1014.7 |
| 20260506031552 | 62 | 154 | 0.0 | 0.0 | 0.00 | 0.00 | 0.00 | 75 | 1014.7 |
| 20260506030053 | 63 | 154 | 0.0 | 0.0 | 0.00 | 0.00 | 0.00 | 74 | 1014.6 |
| 20260506024554 | 64 | 154 | 0.0 | 0.0 | 0.00 | 0.00 | 0.00 | 73 | 1014.5 |
| 20260506023044 | 64 | 154 | 0.0 | 3.5 | 0.00 | 0.00 | 0.00 | 71 | 1014.3 |
| 20260506021526 | 65 | 154 | 0.0 | 0.9 | 0.00 | 0.00 | 0.00 | 69 | 1014.3 |
| 20260506020026 | 65 | 154 | 0.0 | 1.7 | 0.00 | 0.00 | 0.00 | 70 | 1014.4 |
| 20260506014509 | 65 | 154 | 0.0 | 2.6 | 0.00 | 0.00 | 0.00 | 70 | 1014.3 |
| 20260506013007 | 65 | 78 | 0.0 | 0.0 | 0.00 | 0.00 | 0.00 | 70 | 1014.4 |
| 20260506011602 | 65 | 78 | 0.0 | 4.3 | 0.00 | 0.00 | 0.00 | 69 | 1014.4 |
| 20260506010048 | 66 | 107 | 0.0 | 6.1 | 0.00 | 0.00 | 0.00 | 67 | 1014.4 |
| 20260506004531 | 67 | 126 | 1.7 | 7.0 | 0.00 | 0.00 | 0.00 | 67 | 1014.4 |
| 20260506003029 | 68 | 50 | 0.0 | 5.2 | 0.00 | 0.00 | 0.00 | 66 | 1014.5 |
| 20260506001508 | 66 | 80 | 0.0 | 4.3 | 0.00 | 0.00 | 0.00 | 70 | 1014.5 |
| 20260506000007 | 65 | 28 | 0.0 | 3.5 | 0.00 | 0.00 | 0.00 | 69 | 1014.7 |
| 20260505234543 | 64 | 28 | 0.0 | 0.9 | 0.00 | 0.00 | 0.00 | 72 | 1014.9 |
| 20260505233041 | 64 | 28 | 0.0 | 3.5 | 0.00 | 0.00 | 0.00 | 73 | 1015.1 |
| 20260505231524 | 64 | 28 | 0.0 | 3.5 | 0.00 | 0.00 | 0.00 | 72 | 1015.1 |
| 20260505230021 | 64 | 30 | 0.0 | 4.3 | 0.00 | 0.00 | 0.00 | 73 | 1015.2 |
| 20260505224503 | 64 | 32 | 0.0 | 0.0 | 0.00 | 0.00 | 0.00 | 74 | 1015.2 |
| 20260505223001 | 63 | 32 | 0.0 | 0.0 | 0.00 | 0.00 | 0.00 | 75 | 1015.3 |
| 20260505221551 | 63 | 31 | 0.0 | 0.0 | 0.00 | 0.00 | 0.00 | 76 | 1015.5 |
| 20260505220044 | 62 | 31 | 0.0 | 3.5 | 0.00 | 0.00 | 0.00 | 78 | 1015.5 |
| 20260505214531 | 62 | 29 | 0.0 | 4.3 | 0.00 | 0.00 | 0.00 | 78 | 1015.5 |
| 20260505213024 | 63 | 351 | 1.7 | 7.0 | 0.00 | 0.00 | 0.00 | 76 | 1015.6 |
| 20260505211507 | 63 | 24 | 0.0 | 3.5 | 0.00 | 0.00 | 0.00 | 75 | 1015.6 |
| 20260505210006 | 63 | 26 | 0.0 | 3.5 | 0.00 | 0.00 | 0.00 | 78 | 1015.6 |
| 20260505204548 | 62 | 26 | 0.0 | 4.3 | 0.00 | 0.00 | 0.00 | 77 | 1015.7 |
| 20260505203047 | 61 | 44 | 0.0 | 4.3 | 0.00 | 0.00 | 0.00 | 80 | 1015.8 |
| 20260505201530 | 61 | 355 | 3.5 | 5.2 | 0.00 | 0.00 | 0.00 | 80 | 1015.9 |
| 20260505200040 | 61 | 250 | 0.9 | 4.3 | 0.00 | 0.00 | 0.00 | 78 | 1015.8 |
| 20260505194511 | 60 | 211 | 0.9 | 5.2 | 0.00 | 0.00 | 0.00 | 78 | 1016.0 |
| 20260505193011 | 61 | 259 | 0.0 | 4.3 | 0.00 | 0.00 | 0.00 | 76 | 1015.9 |
| 20260505191553 | 61 | 203 | 0.0 | 3.5 | 0.00 | 0.00 | 0.00 | 77 | 1015.9 |
| 20260505190052 | 61 | 142 | 0.0 | 0.0 | 0.00 | 0.00 | 0.00 | 79 | 1015.8 |
| 20260505184535 | 60 | 142 | 0.0 | 0.0 | 0.00 | 0.00 | 0.00 | 80 | 1015.9 |
| 20260505183050 | 59 | 142 | 0.0 | 0.0 | 0.00 | 0.00 | 0.00 | 82 | 1015.9 |
| 20260505181518 | 59 | 142 | 0.0 | 0.0 | 0.00 | 0.00 | 0.00 | 82 | 1015.9 |
| 20260505180016 | 58 | 142 | 0.0 | 0.0 | 0.00 | 0.00 | 0.00 | 84 | 1015.9 |
| 20260505174601 | 58 | 142 | 0.0 | 0.0 | 0.00 | 0.00 | 0.00 | 84 | 1015.8 |
| 20260505173056 | 57 | 142 | 0.0 | 0.0 | 0.00 | 0.00 | 0.00 | 86 | 1015.8 |
| 20260505171545 | 57 | 142 | 0.0 | 0.0 | 0.00 | 0.00 | 0.00 | 88 | 1015.7 |
| 20260505170038 | 56 | 142 | 0.0 | 0.0 | 0.00 | 0.00 | 0.00 | 89 | 1015.5 |
| 20260505164519 | 56 | 142 | 0.0 | 0.0 | 0.00 | 0.00 | 0.00 | 92 | 1015.5 |
| 20260505163020 | 55 | 142 | 0.0 | 0.0 | 0.00 | 0.00 | 0.00 | 92 | 1015.5 |
| 20260505161607 | 55 | 142 | 0.0 | 0.0 | 0.00 | 0.00 | 0.00 | 93 | 1015.4 |
| 20260505153041 | 54 | 176 | 0.0 | 0.0 | 0.00 | 0.00 | 0.00 | 94 | 1015.3 |
| 20260505151522 | 54 | 176 | 0.0 | 2.6 | 0.00 | 0.00 | 0.00 | 94 | 1015.3 |
| 20260505124524 | 55 | 176 | 0.0 | 0.0 | 0.00 | 0.00 | 0.00 | 91 | 1014.2 |
| 20260505123027 | 55 | 176 | 0.0 | 0.0 | 0.00 | 0.00 | 0.00 | 91 | 1014.1 |
| 20260505121525 | 55 | 176 | 0.0 | 0.0 | 0.00 | 0.00 | 0.00 | 90 | 1014.1 |
| 20260505120031 | 55 | 176 | 0.0 | 0.0 | 0.00 | 0.00 | 0.00 | 90 | 1014.0 |
| 20260505114521 | 54 | 176 | 0.0 | 0.0 | 0.00 | 0.00 | 0.00 | 89 | 1014.0 |
| 20260505113120 | 54 | 176 | 0.0 | 0.0 | 0.00 | 0.00 | 0.00 | 89 | 1014.0 |
| 20260505111557 | 54 | 176 | 0.0 | 0.0 | 0.00 | 0.00 | 0.00 | 89 | 1013.9 |
| 20260505101520 | 55 | 176 | 0.0 | 0.0 | 0.00 | 0.00 | 0.00 | 88 | 1013.4 |
| 20260505100059 | 55 | 176 | 0.0 | 0.0 | 0.00 | 0.00 | 0.00 | 87 | 1013.4 |
| 20260505094557 | 55 | 176 | 0.0 | 0.0 | 0.00 | 0.00 | 0.00 | 87 | 1013.4 |
| 20260505093039 | 55 | 176 | 0.0 | 0.0 | 0.00 | 0.00 | 0.00 | 88 | 1013.3 |
| 20260505091542 | 55 | 176 | 0.0 | 0.0 | 0.00 | 0.00 | 0.00 | 88 | 1013.1 |
| 20260505090021 | 55 | 176 | 0.0 | 0.0 | 0.00 | 0.00 | 0.00 | 87 | 1013.0 |
| 20260505084516 | 56 | 176 | 0.0 | 0.0 | 0.00 | 0.00 | 0.00 | 88 | 1012.9 |
| 20260505083102 | 56 | 176 | 0.0 | 0.0 | 0.00 | 0.00 | 0.00 | 87 | 1012.9 |
| 20260505081605 | 56 | 176 | 0.0 | 0.0 | 0.00 | 0.00 | 0.00 | 86 | 1012.9 |
| 20260505080039 | 57 | 176 | 0.0 | 0.0 | 0.00 | 0.00 | 0.00 | 84 | 1012.7 |
| 20260505074533 | 57 | 176 | 0.0 | 0.0 | 0.00 | 0.00 | 0.00 | 83 | 1012.5 |
| 20260505073013 | 58 | 176 | 0.9 | 4.3 | 0.00 | 0.00 | 0.00 | 83 | 1012.3 |
| 20260505071526 | 58 | 187 | 0.0 | 2.6 | 0.00 | 0.00 | 0.00 | 82 | 1012.1 |
| 20260505070059 | 59 | 188 | 0.0 | 5.2 | 0.00 | 0.00 | 0.00 | 81 | 1012.0 |